Location: Maiden
(35.5760°N, 81.2120°W)
Time: 01:59:55
(UTC-04:00)

ARGOS - Pass Details

Date: 02 August 2020
Orbit: 819 x 835 km, 98.5° (Epoch: 11 August)

Event Time Altitude Azimuth Distance (km) Brightness Sun altitude
Rises 21:29:10 0° 183° (S) 3,362 6.0 -12.0°
Reaches altitude 10° 21:31:38 10° 190° (S) 2,430 5.4 -12.4°
Maximum altitude 21:36:44 43° 261° (W) 1,156 4.3 -13.3°
Drops below altitude 10° 21:41:50 10° 332° (NNW) 2,435 6.6 -14.2°
Sets 21:44:19 0° 339° (NNW) 3,369 7.3 -14.6°
